Time,TemperatureF,DewpointF,PressureIn,WindDirection,WindDirectionDegrees,WindSpeedMPH,WindSpeedGustMPH,Humidity,HourlyPrecipIn,Conditions,Clouds,dailyrainin,SoftwareType,DateUTC
2013-05-29 00:00:00,66.9,64.0,29.56,SSE,164,0.0,0.0,92,0.00,,,-99.99,wx200d/1.3,2013-05-29 04:00:00,
2013-05-29 00:05:00,66.7,64.0,29.56,SSE,164,0.0,0.0,92,0.00,,,-99.99,wx200d/1.3,2013-05-29 04:05:00,
2013-05-29 00:10:00,66.4,64.0,29.56,SSE,165,0.0,0.0,91,0.00,,,-99.99,wx200d/1.3,2013-05-29 04:10:00,
2013-05-29 00:15:00,66.2,64.0,29.56,SSE,163,0.0,0.0,91,0.00,,,-99.99,wx200d/1.3,2013-05-29 04:15:00,
2013-05-29 00:20:00,65.7,64.0,29.56,SSE,162,0.0,0.0,91,0.00,,,-99.99,wx200d/1.3,2013-05-29 04:20:00,
2013-05-29 00:25:00,65.5,64.0,29.56,SSE,162,0.0,0.0,91,0.00,,,-99.99,wx200d/1.3,2013-05-29 04:25:00,
2013-05-29 00:31:00,66.0,64.0,29.56,SSE,160,2.7,4.9,92,0.00,,,-99.99,wx200d/1.3,2013-05-29 04:31:00,
2013-05-29 00:36:00,66.6,64.0,29.56,SSW,196,0.0,0.0,92,0.00,,,-99.99,wx200d/1.3,2013-05-29 04:36:00,
2013-05-29 00:41:00,66.9,64.0,29.56,SSW,201,0.0,0.0,92,0.00,,,-99.99,wx200d/1.3,2013-05-29 04:41:00,
2013-05-29 00:46:00,67.3,66.0,29.56,South,186,0.0,0.0,92,0.00,,,-99.99,wx200d/1.3,2013-05-29 04:46:00,
2013-05-29 00:51:00,67.5,66.0,29.56,South,180,0.0,0.0,93,0.00,,,-99.99,wx200d/1.3,2013-05-29 04:51:00,
2013-05-29 00:56:00,67.6,66.0,29.56,SSW,201,0.0,0.0,93,0.00,,,-99.99,wx200d/1.3,2013-05-29 04:56:00,
2013-05-29 01:01:00,67.6,66.0,29.56,ESE,123,0.0,0.0,93,0.00,,,-99.99,wx200d/1.3,2013-05-29 05:01:00,
2013-05-29 01:06:00,67.8,66.0,29.56,SSW,196,0.0,0.0,93,0.00,,,-99.99,wx200d/1.3,2013-05-29 05:06:00,
2013-05-29 01:11:00,67.8,66.0,29.56,SSE,157,0.0,6.7,93,0.00,,,-99.99,wx200d/1.3,2013-05-29 05:11:00,
2013-05-29 01:16:00,67.8,66.0,29.56,ESE,121,0.0,0.0,93,0.00,,,-99.99,wx200d/1.3,2013-05-29 05:16:00,
2013-05-29 01:21:00,67.8,66.0,29.53,SSW,199,0.0,0.0,93,0.00,,,-99.99,wx200d/1.3,2013-05-29 05:21:00,
2013-05-29 01:26:00,67.8,66.0,29.53,South,186,0.0,3.6,92,0.00,,,-99.99,wx200d/1.3,2013-05-29 05:26:00,
2013-05-29 01:31:00,67.8,66.0,29.53,South,176,0.0,0.0,92,0.00,,,-99.99,wx200d/1.3,2013-05-29 05:31:00,
2013-05-29 01:36:00,67.8,66.0,29.53,SSE,168,0.0,0.0,92,0.00,,,-99.99,wx200d/1.3,2013-05-29 05:36:00,
2013-05-29 01:41:00,67.8,66.0,29.53,South,184,0.0,0.0,92,0.00,,,-99.99,wx200d/1.3,2013-05-29 05:41:00,
2013-05-29 01:46:00,68.0,66.0,29.53,South,185,0.0,7.4,92,0.00,,,-99.99,wx200d/1.3,2013-05-29 05:46:00,
2013-05-29 01:51:00,68.0,66.0,29.53,SSW,201,0.0,6.3,92,0.00,,,-99.99,wx200d/1.3,2013-05-29 05:51:00,
2013-05-29 01:56:00,68.2,66.0,29.53,SSW,192,0.0,4.9,92,0.00,,,-99.99,wx200d/1.3,2013-05-29 05:56:00,
2013-05-29 02:01:00,68.2,64.0,29.53,SSE,164,5.4,7.4,91,0.00,,,-99.99,wx200d/1.3,2013-05-29 06:01:00,
2013-05-29 02:06:00,68.4,64.0,29.53,SW,215,3.6,6.3,91,0.00,,,-99.99,wx200d/1.3,2013-05-29 06:06:00,
2013-05-29 02:12:00,68.4,64.0,29.53,SSW,199,0.0,0.0,91,0.00,,,-99.99,wx200d/1.3,2013-05-29 06:12:00,
2013-05-29 02:17:00,68.2,64.0,29.53,South,179,0.0,0.0,91,0.00,,,-99.99,wx200d/1.3,2013-05-29 06:17:00,
2013-05-29 02:22:00,68.2,64.0,29.53,SSW,197,0.0,0.0,90,0.00,,,-99.99,wx200d/1.3,2013-05-29 06:22:00,
2013-05-29 02:27:00,68.4,64.0,29.53,SSW,201,0.0,0.0,90,0.00,,,-99.99,wx200d/1.3,2013-05-29 06:27:00,
2013-05-29 02:32:00,68.4,64.0,29.53,SSW,203,0.0,0.0,90,0.00,,,-99.99,wx200d/1.3,2013-05-29 06:32:00,
2013-05-29 02:37:00,68.5,64.0,29.53,SSW,203,0.0,0.0,90,0.00,,,-99.99,wx200d/1.3,2013-05-29 06:37:00,
2013-05-29 02:42:00,68.5,64.0,29.53,SW,216,3.6,9.2,90,0.00,,,-99.99,wx200d/1.3,2013-05-29 06:42:00,
2013-05-29 02:47:00,68.7,64.0,29.53,South,188,3.6,8.7,89,0.00,,,-99.99,wx200d/1.3,2013-05-29 06:47:00,
2013-05-29 02:52:00,68.7,64.0,29.53,SSW,196,0.0,6.3,89,0.00,,,-99.99,wx200d/1.3,2013-05-29 06:52:00,
2013-05-29 02:57:00,68.5,64.0,29.53,SSE,155,0.0,6.9,89,0.00,,,-99.99,wx200d/1.3,2013-05-29 06:57:00,
2013-05-29 03:02:00,68.5,64.0,29.53,WSW,246,0.0,0.0,88,0.00,,,-99.99,wx200d/1.3,2013-05-29 07:02:00,
2013-05-29 03:07:00,68.5,64.0,29.53,South,176,0.0,2.7,88,0.00,,,-99.99,wx200d/1.3,2013-05-29 07:07:00,
2013-05-29 03:12:00,68.5,64.0,29.53,SSW,195,0.0,8.3,88,0.00,,,-99.99,wx200d/1.3,2013-05-29 07:12:00,
2013-05-29 03:17:00,68.7,64.0,29.53,South,176,0.0,8.3,88,0.00,,,-99.99,wx200d/1.3,2013-05-29 07:17:00,
2013-05-29 03:22:00,68.9,66.0,29.53,South,169,2.7,4.5,89,0.00,,,-99.99,wx200d/1.3,2013-05-29 07:22:00,
2013-05-29 03:27:00,69.1,66.0,29.53,SW,219,4.0,8.3,88,0.00,,,-99.99,wx200d/1.3,2013-05-29 07:27:00,
2013-05-29 03:32:00,69.1,66.0,29.53,South,187,4.0,8.3,88,0.00,,,-99.99,wx200d/1.3,2013-05-29 07:32:00,
2013-05-29 03:37:00,69.3,66.0,29.53,WSW,237,0.0,9.2,88,0.00,,,-99.99,wx200d/1.3,2013-05-29 07:37:00,
2013-05-29 03:42:00,69.1,66.0,29.53,South,183,0.0,4.5,87,0.00,,,-99.99,wx200d/1.3,2013-05-29 07:42:00,
2013-05-29 03:47:00,69.1,66.0,29.53,SSW,196,0.0,0.0,87,0.00,,,-99.99,wx200d/1.3,2013-05-29 07:47:00,
2013-05-29 03:52:00,69.1,66.0,29.53,SSE,163,0.0,0.0,87,0.00,,,-99.99,wx200d/1.3,2013-05-29 07:52:00,
2013-05-29 03:57:00,69.1,66.0,29.53,SSW,203,0.0,7.4,87,0.00,,,-99.99,wx200d/1.3,2013-05-29 07:57:00,
2013-05-29 04:02:00,69.1,66.0,29.53,South,189,0.0,3.1,87,0.00,,,-99.99,wx200d/1.3,2013-05-29 08:02:00,
2013-05-29 04:07:00,68.9,66.0,29.53,South,187,2.7,5.8,87,0.00,,,-99.99,wx200d/1.3,2013-05-29 08:07:00,
2013-05-29 04:12:00,68.9,66.0,29.53,SSW,210,0.0,0.0,87,0.00,,,-99.99,wx200d/1.3,2013-05-29 08:12:00,
2013-05-29 04:17:00,68.9,66.0,29.53,SSW,196,0.0,0.0,87,0.00,,,-99.99,wx200d/1.3,2013-05-29 08:17:00,
2013-05-29 04:22:00,68.9,66.0,29.53,SSW,210,0.0,0.0,87,0.00,,,-99.99,wx200d/1.3,2013-05-29 08:22:00,
2013-05-29 04:27:00,68.9,66.0,29.53,SSW,194,0.0,0.0,88,0.00,,,-99.99,wx200d/1.3,2013-05-29 08:27:00,
2013-05-29 04:32:00,68.7,64.0,29.53,SW,218,0.0,0.0,88,0.00,,,-99.99,wx200d/1.3,2013-05-29 08:32:00,
2013-05-29 04:37:00,68.9,66.0,29.53,SSW,205,0.0,0.0,88,0.00,,,-99.99,wx200d/1.3,2013-05-29 08:37:00,
2013-05-29 04:42:00,68.9,66.0,29.53,South,185,0.0,0.0,89,0.00,,,-99.99,wx200d/1.3,2013-05-29 08:42:00,
2013-05-29 04:47:00,68.7,64.0,29.53,SSW,209,0.0,0.0,89,0.00,,,-99.99,wx200d/1.3,2013-05-29 08:47:00,
2013-05-29 04:53:00,68.7,64.0,29.53,SSW,195,0.0,0.0,89,0.00,,,-99.99,wx200d/1.3,2013-05-29 08:53:00,
2013-05-29 04:58:00,68.5,64.0,29.53,South,175,0.0,0.0,89,0.00,,,-99.99,wx200d/1.3,2013-05-29 08:58:00,
2013-05-29 05:03:00,68.5,64.0,29.53,SSW,193,0.0,0.0,89,0.00,,,-99.99,wx200d/1.3,2013-05-29 09:03:00,
2013-05-29 05:08:00,68.7,64.0,29.53,South,183,0.0,0.0,90,0.00,,,-99.99,wx200d/1.3,2013-05-29 09:08:00,
2013-05-29 05:13:00,68.7,64.0,29.53,SSW,209,0.0,0.0,90,0.00,,,-99.99,wx200d/1.3,2013-05-29 09:13:00,
2013-05-29 05:18:00,68.7,64.0,29.53,SSW,192,0.0,0.0,90,0.00,,,-99.99,wx200d/1.3,2013-05-29 09:18:00,
2013-05-29 05:23:00,68.7,64.0,29.53,SSW,195,0.0,0.0,90,0.00,,,-99.99,wx200d/1.3,2013-05-29 09:23:00,
2013-05-29 05:28:00,68.5,64.0,29.53,South,179,0.0,0.0,90,0.00,,,-99.99,wx200d/1.3,2013-05-29 09:28:00,
2013-05-29 05:33:00,68.5,64.0,29.53,SSW,198,0.0,0.0,90,0.00,,,-99.99,wx200d/1.3,2013-05-29 09:33:00,
2013-05-29 05:38:00,68.5,64.0,29.53,South,191,0.0,0.0,90,0.00,,,-99.99,wx200d/1.3,2013-05-29 09:38:00,
2013-05-29 05:43:00,68.5,64.0,29.53,South,180,0.0,0.0,90,0.00,,,-99.99,wx200d/1.3,2013-05-29 09:43:00,
2013-05-29 05:48:00,68.7,64.0,29.53,South,180,0.0,0.0,90,0.00,,,-99.99,wx200d/1.3,2013-05-29 09:48:00,
2013-05-29 05:53:00,68.7,64.0,29.53,SSW,208,0.0,0.0,90,0.00,,,-99.99,wx200d/1.3,2013-05-29 09:53:00,
2013-05-29 05:58:00,68.7,64.0,29.53,SSW,199,0.0,0.0,90,0.00,,,-99.99,wx200d/1.3,2013-05-29 09:58:00,
2013-05-29 06:03:00,68.7,64.0,29.53,South,182,0.0,0.0,90,0.00,,,-99.99,wx200d/1.3,2013-05-29 10:03:00,
2013-05-29 06:08:00,68.7,64.0,29.53,SSW,193,0.0,0.0,90,0.00,,,-99.99,wx200d/1.3,2013-05-29 10:08:00,
2013-05-29 06:13:00,68.9,66.0,29.53,South,183,0.0,0.0,90,0.00,,,-99.99,wx200d/1.3,2013-05-29 10:13:00,
2013-05-29 06:18:00,68.9,66.0,29.53,SSW,199,0.0,0.0,90,0.00,,,-99.99,wx200d/1.3,2013-05-29 10:18:00,
2013-05-29 06:23:00,68.9,66.0,29.53,South,182,0.0,0.0,90,0.00,,,-99.99,wx200d/1.3,2013-05-29 10:23:00,
2013-05-29 06:28:00,69.1,66.0,29.53,SSW,205,0.0,0.0,90,0.00,,,-99.99,wx200d/1.3,2013-05-29 10:28:00,
2013-05-29 06:33:00,69.1,66.0,29.53,SSW,195,0.0,0.0,90,0.00,,,-99.99,wx200d/1.3,2013-05-29 10:33:00,
2013-05-29 06:38:00,69.1,66.0,29.53,South,170,0.0,0.0,90,0.00,,,-99.99,wx200d/1.3,2013-05-29 10:38:00,
2013-05-29 06:43:00,69.3,66.0,29.53,SSE,153,0.0,0.0,90,0.00,,,-99.99,wx200d/1.3,2013-05-29 10:43:00,
2013-05-29 06:48:00,69.3,66.0,29.53,South,181,0.0,0.0,90,0.00,,,-99.99,wx200d/1.3,2013-05-29 10:48:00,
2013-05-29 06:53:00,69.3,66.0,29.53,South,172,0.0,0.0,89,0.00,,,-99.99,wx200d/1.3,2013-05-29 10:53:00,
2013-05-29 06:58:00,69.3,66.0,29.53,South,185,0.0,0.0,89,0.00,,,-99.99,wx200d/1.3,2013-05-29 10:58:00,
2013-05-29 07:03:00,69.3,66.0,29.53,South,184,0.0,0.0,89,0.00,,,-99.99,wx200d/1.3,2013-05-29 11:03:00,
2013-05-29 07:08:00,69.4,66.0,29.53,SSW,200,0.0,0.0,88,0.00,,,-99.99,wx200d/1.3,2013-05-29 11:08:00,
2013-05-29 07:13:00,69.3,66.0,29.53,SSE,153,0.0,0.0,88,0.00,,,-99.99,wx200d/1.3,2013-05-29 11:13:00,
2013-05-29 07:18:00,69.3,66.0,29.53,South,190,0.0,0.0,88,0.00,,,-99.99,wx200d/1.3,2013-05-29 11:18:00,
2013-05-29 07:23:00,69.3,66.0,29.53,SE,136,0.0,0.0,88,0.00,,,-99.99,wx200d/1.3,2013-05-29 11:23:00,
2013-05-29 07:28:00,69.3,66.0,29.53,SSW,205,0.0,0.0,88,0.00,,,-99.99,wx200d/1.3,2013-05-29 11:28:00,
2013-05-29 07:34:00,69.4,66.0,29.53,South,181,0.0,0.0,88,0.00,,,-99.99,wx200d/1.3,2013-05-29 11:34:00,
2013-05-29 07:39:00,69.6,66.0,29.53,South,187,0.0,0.0,88,0.00,,,-99.99,wx200d/1.3,2013-05-29 11:39:00,
2013-05-29 07:44:00,69.8,66.0,29.53,SW,228,0.0,0.0,88,0.00,,,-99.99,wx200d/1.3,2013-05-29 11:44:00,
2013-05-29 07:49:00,70.2,66.0,29.53,SSW,195,0.0,0.0,88,0.00,,,-99.99,wx200d/1.3,2013-05-29 11:49:00,
2013-05-29 07:54:00,70.3,66.0,29.53,South,185,0.0,0.0,88,0.00,,,-99.99,wx200d/1.3,2013-05-29 11:54:00,
2013-05-29 07:59:00,70.5,66.0,29.53,SSW,204,0.0,0.0,88,0.00,,,-99.99,wx200d/1.3,2013-05-29 11:59:00,
2013-05-29 08:04:00,70.5,66.0,29.53,SSW,193,0.0,0.0,87,0.00,,,-99.99,wx200d/1.3,2013-05-29 12:04:00,
2013-05-29 08:09:00,70.7,68.0,29.56,South,188,0.0,0.0,86,0.00,,,-99.99,wx200d/1.3,2013-05-29 12:09:00,
2013-05-29 08:14:00,71.1,66.0,29.56,SW,218,0.0,0.0,85,0.00,,,-99.99,wx200d/1.3,2013-05-29 12:14:00,
2013-05-29 08:19:00,71.4,66.0,29.56,SW,228,0.0,0.0,85,0.00,,,-99.99,wx200d/1.3,2013-05-29 12:19:00,
2013-05-29 08:24:00,71.8,66.0,29.56,WSW,238,0.0,0.0,83,0.00,,,-99.99,wx200d/1.3,2013-05-29 12:24:00,
2013-05-29 08:29:00,72.3,66.0,29.56,SW,232,0.0,0.0,83,0.00,,,-99.99,wx200d/1.3,2013-05-29 12:29:00,
2013-05-29 08:34:00,72.3,64.0,29.56,SW,228,0.0,0.0,80,0.00,,,-99.99,wx200d/1.3,2013-05-29 12:34:00,
2013-05-29 08:39:00,72.7,66.0,29.56,SW,230,0.0,0.0,80,0.00,,,-99.99,wx200d/1.3,2013-05-29 12:39:00,
2013-05-29 08:44:00,72.7,66.0,29.56,SW,229,0.0,0.0,77,0.00,,,-99.99,wx200d/1.3,2013-05-29 12:44:00,
2013-05-29 08:49:00,72.7,66.0,29.56,SW,236,0.0,0.0,78,0.00,,,-99.99,wx200d/1.3,2013-05-29 12:49:00,
2013-05-29 08:54:00,72.9,66.0,29.56,SW,229,0.0,0.0,77,0.00,,,-99.99,wx200d/1.3,2013-05-29 12:54:00,
2013-05-29 08:59:00,73.2,66.0,29.56,WSW,247,0.0,0.0,78,0.00,,,-99.99,wx200d/1.3,2013-05-29 12:59:00,
2013-05-29 09:04:00,73.2,66.0,29.56,WSW,249,0.0,0.0,76,0.00,,,-99.99,wx200d/1.3,2013-05-29 13:04:00,
2013-05-29 09:09:00,73.6,66.0,29.56,WSW,247,0.0,0.0,77,0.00,,,-99.99,wx200d/1.3,2013-05-29 13:09:00,
2013-05-29 09:14:00,73.6,64.0,29.56,WSW,242,0.0,0.0,75,0.00,,,-99.99,wx200d/1.3,2013-05-29 13:14:00,
2013-05-29 09:19:00,73.9,64.0,29.56,SSW,208,0.0,0.0,75,0.00,,,-99.99,wx200d/1.3,2013-05-29 13:19:00,
2013-05-29 09:25:00,74.1,64.0,29.56,WSW,242,0.0,0.0,74,0.00,,,-99.99,wx200d/1.3,2013-05-29 13:25:00,
2013-05-29 09:30:00,74.3,64.0,29.56,SW,220,0.0,0.0,71,0.00,,,-99.99,wx200d/1.3,2013-05-29 13:30:00,
2013-05-29 09:35:00,74.7,66.0,29.56,WSW,239,0.0,0.0,72,0.00,,,-99.99,wx200d/1.3,2013-05-29 13:35:00,
2013-05-29 09:40:00,75.0,64.0,29.56,WSW,246,0.0,0.0,70,0.00,,,-99.99,wx200d/1.3,2013-05-29 13:40:00,
2013-05-29 09:45:00,75.6,64.0,29.56,SW,232,0.0,0.0,70,0.00,,,-99.99,wx200d/1.3,2013-05-29 13:45:00,
2013-05-29 09:50:00,75.7,64.0,29.56,SW,227,0.0,0.0,68,0.00,,,-99.99,wx200d/1.3,2013-05-29 13:50:00,
2013-05-29 09:55:00,76.1,66.0,29.56,SW,235,0.0,0.0,67,0.00,,,-99.99,wx200d/1.3,2013-05-29 13:55:00,
2013-05-29 10:00:00,76.5,64.0,29.56,SSW,209,0.0,0.0,63,0.00,,,-99.99,wx200d/1.3,2013-05-29 14:00:00,
2013-05-29 10:05:00,76.8,64.0,29.56,South,175,0.0,0.0,64,0.00,,,-99.99,wx200d/1.3,2013-05-29 14:05:00,
2013-05-29 10:10:00,77.0,64.0,29.56,SSW,211,0.0,0.0,62,0.00,,,-99.99,wx200d/1.3,2013-05-29 14:10:00,
2013-05-29 10:15:00,77.5,63.0,29.56,WSW,237,0.0,0.0,61,0.00,,,-99.99,wx200d/1.3,2013-05-29 14:15:00,
2013-05-29 10:20:00,77.7,61.0,29.56,South,183,0.0,0.0,57,0.00,,,-99.99,wx200d/1.3,2013-05-29 14:20:00,
2013-05-29 10:25:00,78.3,63.0,29.56,SW,229,0.0,0.0,58,0.00,,,-99.99,wx200d/1.3,2013-05-29 14:25:00,
2013-05-29 10:30:00,78.6,61.0,29.56,SW,224,0.0,0.0,55,0.00,,,-99.99,wx200d/1.3,2013-05-29 14:30:00,
2013-05-29 10:35:00,79.0,61.0,29.56,SW,232,0.0,0.0,54,0.00,,,-99.99,wx200d/1.3,2013-05-29 14:35:00,
2013-05-29 10:40:00,79.5,63.0,29.56,SW,215,0.0,0.0,57,0.00,,,-99.99,wx200d/1.3,2013-05-29 14:40:00,
2013-05-29 10:45:00,80.4,63.0,29.56,SW,227,0.0,0.0,53,0.00,,,-99.99,wx200d/1.3,2013-05-29 14:45:00,
2013-05-29 10:50:00,80.6,61.0,29.56,WSW,246,0.0,0.0,50,0.00,,,-99.99,wx200d/1.3,2013-05-29 14:50:00,
2013-05-29 10:55:00,81.3,59.0,29.56,WSW,241,0.0,0.0,47,0.00,,,-99.99,wx200d/1.3,2013-05-29 14:55:00,
2013-05-29 11:00:00,81.9,57.0,29.56,SW,220,0.0,0.0,43,0.00,,,-99.99,wx200d/1.3,2013-05-29 15:00:00,
2013-05-29 11:05:00,82.2,59.0,29.56,SW,217,0.0,0.0,44,0.00,,,-99.99,wx200d/1.3,2013-05-29 15:05:00,
2013-05-29 11:10:00,82.2,57.0,29.56,WSW,256,0.0,0.0,44,0.00,,,-99.99,wx200d/1.3,2013-05-29 15:10:00,
2013-05-29 11:15:00,82.2,59.0,29.56,SW,230,0.0,0.0,44,0.00,,,-99.99,wx200d/1.3,2013-05-29 15:15:00,
2013-05-29 11:20:00,82.8,57.0,29.56,WSW,240,0.0,0.0,43,0.00,,,-99.99,wx200d/1.3,2013-05-29 15:20:00,
2013-05-29 11:25:00,83.3,57.0,29.56,SSW,212,0.0,0.0,41,0.00,,,-99.99,wx200d/1.3,2013-05-29 15:25:00,
2013-05-29 11:30:00,84.0,57.0,29.56,SW,217,0.0,0.0,40,0.00,,,-99.99,wx200d/1.3,2013-05-29 15:30:00,
2013-05-29 11:35:00,84.4,57.0,29.56,SW,225,0.0,0.0,39,0.00,,,-99.99,wx200d/1.3,2013-05-29 15:35:00,
2013-05-29 11:40:00,84.7,54.0,29.56,SW,224,7.4,10.5,34,0.00,,,-99.99,wx200d/1.3,2013-05-29 15:40:00,
2013-05-29 11:45:00,85.1,55.0,29.56,SW,233,9.2,11.2,35,0.00,,,-99.99,wx200d/1.3,2013-05-29 15:45:00,
2013-05-29 11:50:00,85.5,55.0,29.56,SW,218,6.7,10.5,35,0.00,,,-99.99,wx200d/1.3,2013-05-29 15:50:00,
2013-05-29 11:55:00,85.3,52.0,29.56,WSW,246,11.0,14.3,30,0.00,,,-99.99,wx200d/1.3,2013-05-29 15:55:00,
2013-05-29 12:00:00,85.6,52.0,29.56,WSW,254,9.6,14.3,31,0.00,,,-99.99,wx200d/1.3,2013-05-29 16:00:00,
2013-05-29 12:05:00,86.4,52.0,29.56,SW,233,9.2,15.2,29,0.00,,,-99.99,wx200d/1.3,2013-05-29 16:05:00,
2013-05-29 12:10:00,86.4,52.0,29.56,WSW,238,11.0,12.5,30,0.00,,,-99.99,wx200d/1.3,2013-05-29 16:10:00,
2013-05-29 12:15:00,86.4,50.0,29.56,WSW,244,11.0,13.4,28,0.00,,,-99.99,wx200d/1.3,2013-05-29 16:15:00,
2013-05-29 12:20:00,86.4,50.0,29.56,West,275,11.2,15.4,29,0.00,,,-99.99,wx200d/1.3,2013-05-29 16:20:00,
2013-05-29 12:25:00,86.4,50.0,29.56,SW,222,13.4,14.8,28,0.00,,,-99.99,wx200d/1.3,2013-05-29 16:25:00,
2013-05-29 12:30:00,86.5,50.0,29.56,WSW,246,10.5,14.8,30,0.00,,,-99.99,wx200d/1.3,2013-05-29 16:30:00,
2013-05-29 12:35:00,86.9,50.0,29.56,SW,230,12.1,15.4,28,0.00,,,-99.99,wx200d/1.3,2013-05-29 16:35:00,
2013-05-29 12:40:00,87.3,50.0,29.56,WSW,248,11.0,14.8,28,0.00,,,-99.99,wx200d/1.3,2013-05-29 16:40:00,
2013-05-29 12:45:00,87.3,50.0,29.56,WSW,249,11.6,14.3,28,0.00,,,-99.99,wx200d/1.3,2013-05-29 16:45:00,
2013-05-29 12:51:00,87.4,50.0,29.53,WSW,245,12.1,14.3,28,0.00,,,-99.99,wx200d/1.3,2013-05-29 16:51:00,
2013-05-29 12:56:00,87.4,50.0,29.53,West,261,12.5,16.3,28,0.00,,,-99.99,wx200d/1.3,2013-05-29 16:56:00,
2013-05-29 13:01:00,87.4,50.0,29.53,WSW,254,10.5,16.3,28,0.00,,,-99.99,wx200d/1.3,2013-05-29 17:01:00,
2013-05-29 13:06:00,87.6,46.0,29.53,WSW,247,11.6,13.4,25,0.00,,,-99.99,wx200d/1.3,2013-05-29 17:06:00,
2013-05-29 13:11:00,87.8,48.0,29.53,SW,233,10.1,14.8,23,0.00,,,-99.99,wx200d/1.3,2013-05-29 17:11:00,
2013-05-29 13:16:00,87.8,50.0,29.53,WSW,247,13.0,15.4,28,0.00,,,-99.99,wx200d/1.3,2013-05-29 17:16:00,
2013-05-29 13:21:00,87.6,50.0,29.53,WSW,257,11.6,15.9,27,0.00,,,-99.99,wx200d/1.3,2013-05-29 17:21:00,
2013-05-29 13:26:00,87.6,46.0,29.53,WNW,292,9.2,14.3,24,0.00,,,-99.99,wx200d/1.3,2013-05-29 17:26:00,
2013-05-29 13:31:00,87.8,45.0,29.53,WSW,257,8.7,13.4,23,0.00,,,-99.99,wx200d/1.3,2013-05-29 17:31:00,
2013-05-29 13:36:00,88.3,46.0,29.53,SW,228,11.0,11.6,24,0.00,,,-99.99,wx200d/1.3,2013-05-29 17:36:00,
2013-05-29 13:41:00,88.5,45.0,29.53,SW,235,11.6,15.2,27,0.00,,,-99.99,wx200d/1.3,2013-05-29 17:41:00,
2013-05-29 13:46:00,88.7,48.0,29.53,WSW,256,10.1,12.1,25,0.00,,,-99.99,wx200d/1.3,2013-05-29 17:46:00,
2013-05-29 13:51:00,88.5,45.0,29.53,WSW,246,11.0,14.8,23,0.00,,,-99.99,wx200d/1.3,2013-05-29 17:51:00,
2013-05-29 13:56:00,88.5,48.0,29.53,SW,229,8.7,11.2,26,0.00,,,-99.99,wx200d/1.3,2013-05-29 17:56:00,
2013-05-29 14:01:00,89.2,52.0,29.53,WSW,257,10.1,12.5,28,0.00,,,-99.99,wx200d/1.3,2013-05-29 18:01:00,
2013-05-29 14:06:00,89.2,46.0,29.53,WSW,251,11.0,13.4,23,0.00,,,-99.99,wx200d/1.3,2013-05-29 18:06:00,
2013-05-29 14:11:00,89.2,46.0,29.53,SW,234,11.0,12.5,22,0.00,,,-99.99,wx200d/1.3,2013-05-29 18:11:00,
2013-05-29 14:16:00,89.2,48.0,29.53,WSW,250,10.1,12.1,25,0.00,,,-99.99,wx200d/1.3,2013-05-29 18:16:00,
2013-05-29 14:21:00,89.2,45.0,29.53,WSW,240,10.1,13.0,21,0.00,,,-99.99,wx200d/1.3,2013-05-29 18:21:00,
2013-05-29 14:26:00,89.2,46.0,29.53,WSW,248,8.7,11.0,22,0.00,,,-99.99,wx200d/1.3,2013-05-29 18:26:00,
2013-05-29 14:31:00,89.2,45.0,29.53,WSW,240,9.6,13.9,21,0.00,,,-99.99,wx200d/1.3,2013-05-29 18:31:00,
2013-05-29 14:36:00,89.4,48.0,29.53,SW,231,9.2,12.5,23,0.00,,,-99.99,wx200d/1.3,2013-05-29 18:36:00,
2013-05-29 14:41:00,89.6,52.0,29.53,WSW,239,10.1,12.5,23,0.00,,,-99.99,wx200d/1.3,2013-05-29 18:41:00,
2013-05-29 14:46:00,89.4,46.0,29.53,WSW,240,10.5,13.9,23,0.00,,,-99.99,wx200d/1.3,2013-05-29 18:46:00,
2013-05-29 14:51:00,89.6,46.0,29.53,SW,227,8.3,11.2,22,0.00,,,-99.99,wx200d/1.3,2013-05-29 18:51:00,
2013-05-29 14:56:00,89.8,46.0,29.53,WSW,244,9.6,11.2,22,0.00,,,-99.99,wx200d/1.3,2013-05-29 18:56:00,
2013-05-29 15:01:00,90.1,45.0,29.53,SW,227,7.8,12.1,21,0.00,,,-99.99,wx200d/1.3,2013-05-29 19:01:00,
2013-05-29 15:06:00,90.0,45.0,29.53,SW,235,10.5,14.8,21,0.00,,,-99.99,wx200d/1.3,2013-05-29 19:06:00,
2013-05-29 15:11:00,89.6,45.0,29.53,SW,231,8.7,12.1,21,0.00,,,-99.99,wx200d/1.3,2013-05-29 19:11:00,
2013-05-29 15:16:00,89.6,46.0,29.53,WSW,239,9.6,11.2,22,0.00,,,-99.99,wx200d/1.3,2013-05-29 19:16:00,
2013-05-29 15:21:00,89.8,43.0,29.53,SW,223,8.7,13.4,20,0.00,,,-99.99,wx200d/1.3,2013-05-29 19:21:00,
2013-05-29 15:26:00,89.8,46.0,29.53,SW,227,8.3,11.6,23,0.00,,,-99.99,wx200d/1.3,2013-05-29 19:26:00,
2013-05-29 15:31:00,89.8,45.0,29.53,SW,224,8.7,12.1,21,0.00,,,-99.99,wx200d/1.3,2013-05-29 19:31:00,
2013-05-29 15:36:00,89.8,46.0,29.53,WSW,250,8.3,11.6,22,0.00,,,-99.99,wx200d/1.3,2013-05-29 19:36:00,
2013-05-29 15:41:00,90.1,46.0,29.53,WSW,237,4.5,10.5,21,0.00,,,-99.99,wx200d/1.3,2013-05-29 19:41:00,
2013-05-29 15:46:00,90.3,45.0,29.53,SW,236,8.7,11.2,21,0.00,,,-99.99,wx200d/1.3,2013-05-29 19:46:00,
2013-05-29 15:51:00,90.3,46.0,29.53,WSW,257,7.8,11.2,22,0.00,,,-99.99,wx200d/1.3,2013-05-29 19:51:00,
2013-05-29 15:56:00,90.1,46.0,29.53,SW,215,7.8,11.2,22,0.00,,,-99.99,wx200d/1.3,2013-05-29 19:56:00,
2013-05-29 16:01:00,90.1,46.0,29.53,WSW,244,8.7,13.0,22,0.00,,,-99.99,wx200d/1.3,2013-05-29 20:01:00,
2013-05-29 16:06:00,90.1,45.0,29.53,WSW,238,9.6,12.1,21,0.00,,,-99.99,wx200d/1.3,2013-05-29 20:06:00,
2013-05-29 16:11:00,90.7,46.0,29.53,WSW,241,6.9,11.2,21,0.00,,,-99.99,wx200d/1.3,2013-05-29 20:11:00,
2013-05-29 16:16:00,90.9,45.0,29.53,WSW,239,11.2,12.1,20,0.00,,,-99.99,wx200d/1.3,2013-05-29 20:16:00,
2013-05-29 16:21:00,90.1,45.0,29.53,SW,233,9.2,12.1,21,0.00,,,-99.99,wx200d/1.3,2013-05-29 20:21:00,
2013-05-29 16:26:00,90.0,46.0,29.53,SW,229,8.7,13.0,22,0.00,,,-99.99,wx200d/1.3,2013-05-29 20:26:00,
2013-05-29 16:31:00,90.3,46.0,29.53,WSW,251,9.2,14.8,23,0.00,,,-99.99,wx200d/1.3,2013-05-29 20:31:00,
2013-05-29 16:36:00,90.3,45.0,29.53,WSW,238,9.6,14.8,21,0.00,,,-99.99,wx200d/1.3,2013-05-29 20:36:00,
2013-05-29 16:41:00,89.6,45.0,29.53,WSW,247,7.8,10.1,21,0.00,,,-99.99,wx200d/1.3,2013-05-29 20:41:00,
2013-05-29 16:46:00,89.8,46.0,29.53,WSW,238,9.6,11.6,21,0.00,,,-99.99,wx200d/1.3,2013-05-29 20:46:00,
2013-05-29 16:52:00,90.3,43.0,29.53,SW,235,11.6,13.4,20,0.00,,,-99.99,wx200d/1.3,2013-05-29 20:52:00,
2013-05-29 16:57:00,90.3,43.0,29.53,WSW,238,9.6,13.4,20,0.00,,,-99.99,wx200d/1.3,2013-05-29 20:57:00,
2013-05-29 17:02:00,90.5,46.0,29.53,WNW,283,9.6,12.1,20,0.00,,,-99.99,wx200d/1.3,2013-05-29 21:02:00,
2013-05-29 17:07:00,90.3,43.0,29.50,SW,228,10.5,13.0,21,0.00,,,-99.99,wx200d/1.3,2013-05-29 21:07:00,
2013-05-29 17:12:00,90.5,45.0,29.50,SW,233,0.0,11.2,20,0.00,,,-99.99,wx200d/1.3,2013-05-29 21:12:00,
2013-05-29 17:17:00,90.0,46.0,29.50,WSW,249,8.7,12.1,21,0.00,,,-99.99,wx200d/1.3,2013-05-29 21:17:00,
2013-05-29 17:22:00,90.1,46.0,29.50,WSW,237,7.4,11.6,22,0.00,,,-99.99,wx200d/1.3,2013-05-29 21:22:00,
2013-05-29 17:27:00,90.5,48.0,29.50,SSW,200,6.9,11.0,23,0.00,,,-99.99,wx200d/1.3,2013-05-29 21:27:00,
2013-05-29 17:32:00,90.7,46.0,29.50,SW,233,7.4,11.0,22,0.00,,,-99.99,wx200d/1.3,2013-05-29 21:32:00,
2013-05-29 17:37:00,90.5,45.0,29.50,WSW,251,9.2,12.5,20,0.00,,,-99.99,wx200d/1.3,2013-05-29 21:37:00,
2013-05-29 17:42:00,90.5,45.0,29.50,SW,220,10.5,13.9,20,0.00,,,-99.99,wx200d/1.3,2013-05-29 21:42:00,
2013-05-29 17:47:00,90.1,45.0,29.50,WSW,247,11.0,13.0,21,0.00,,,-99.99,wx200d/1.3,2013-05-29 21:47:00,
2013-05-29 17:52:00,90.1,45.0,29.50,WSW,241,10.5,13.9,21,0.00,,,-99.99,wx200d/1.3,2013-05-29 21:52:00,
2013-05-29 17:57:00,90.3,45.0,29.50,WSW,245,9.2,11.6,21,0.00,,,-99.99,wx200d/1.3,2013-05-29 21:57:00,
2013-05-29 18:02:00,90.3,46.0,29.50,SW,232,6.9,12.1,22,0.00,,,-99.99,wx200d/1.3,2013-05-29 22:02:00,
2013-05-29 18:07:00,90.0,43.0,29.50,SW,232,11.0,13.0,20,0.00,,,-99.99,wx200d/1.3,2013-05-29 22:07:00,
2013-05-29 18:12:00,90.0,45.0,29.50,SW,228,8.3,12.1,20,0.00,,,-99.99,wx200d/1.3,2013-05-29 22:12:00,
2013-05-29 18:17:00,90.0,46.0,29.50,SW,221,8.7,12.5,22,0.00,,,-99.99,wx200d/1.3,2013-05-29 22:17:00,
2013-05-29 18:22:00,89.8,43.0,29.50,SW,235,10.5,13.0,20,0.00,,,-99.99,wx200d/1.3,2013-05-29 22:22:00,
2013-05-29 18:27:00,89.6,46.0,29.50,SW,233,9.2,11.6,22,0.00,,,-99.99,wx200d/1.3,2013-05-29 22:27:00,
2013-05-29 18:32:00,89.6,46.0,29.50,SW,218,8.3,10.1,22,0.00,,,-99.99,wx200d/1.3,2013-05-29 22:32:00,
2013-05-29 18:37:00,89.4,45.0,29.50,WSW,248,7.8,11.2,21,0.00,,,-99.99,wx200d/1.3,2013-05-29 22:37:00,
2013-05-29 18:42:00,89.2,46.0,29.50,WSW,240,8.3,11.2,22,0.00,,,-99.99,wx200d/1.3,2013-05-29 22:42:00,
2013-05-29 18:47:00,88.9,46.0,29.50,SW,229,6.7,12.1,22,0.00,,,-99.99,wx200d/1.3,2013-05-29 22:47:00,
2013-05-29 18:52:00,88.7,48.0,29.50,SSW,198,0.0,9.2,25,0.00,,,-99.99,wx200d/1.3,2013-05-29 22:52:00,
2013-05-29 18:57:00,88.3,46.0,29.50,SW,232,6.9,11.2,24,0.00,,,-99.99,wx200d/1.3,2013-05-29 22:57:00,
2013-05-29 19:02:00,88.3,45.0,29.50,WSW,241,8.7,11.2,23,0.00,,,-99.99,wx200d/1.3,2013-05-29 23:02:00,
2013-05-29 19:07:00,88.2,45.0,29.50,SW,224,7.8,11.0,25,0.00,,,-99.99,wx200d/1.3,2013-05-29 23:07:00,
2013-05-29 19:12:00,87.8,46.0,29.50,SW,223,8.3,11.6,24,0.00,,,-99.99,wx200d/1.3,2013-05-29 23:12:00,
2013-05-29 19:17:00,87.4,48.0,29.50,SW,218,5.8,10.1,26,0.00,,,-99.99,wx200d/1.3,2013-05-29 23:17:00,
2013-05-29 19:22:00,87.3,48.0,29.50,SSW,202,6.7,9.6,26,0.00,,,-99.99,wx200d/1.3,2013-05-29 23:22:00,
2013-05-29 19:27:00,87.1,48.0,29.50,SW,228,6.9,10.5,26,0.00,,,-99.99,wx200d/1.3,2013-05-29 23:27:00,
2013-05-29 19:32:00,87.1,50.0,29.50,SW,221,5.8,8.3,27,0.00,,,-99.99,wx200d/1.3,2013-05-29 23:32:00,
2013-05-29 19:37:00,86.9,48.0,29.50,SSW,205,6.9,9.6,27,0.00,,,-99.99,wx200d/1.3,2013-05-29 23:37:00,
2013-05-29 19:42:00,86.5,50.0,29.50,South,181,6.7,11.6,28,0.00,,,-99.99,wx200d/1.3,2013-05-29 23:42:00,
2013-05-29 19:47:00,86.0,50.0,29.50,South,191,8.3,12.5,29,0.00,,,-99.99,wx200d/1.3,2013-05-29 23:47:00,
2013-05-29 19:52:00,85.3,54.0,29.50,SSW,210,8.7,11.2,32,0.00,,,-99.99,wx200d/1.3,2013-05-29 23:52:00,
2013-05-29 19:57:00,84.6,54.0,29.50,South,184,7.4,11.2,35,0.00,,,-99.99,wx200d/1.3,2013-05-29 23:57:00,
2013-05-29 20:02:00,84.0,55.0,29.50,South,181,7.4,11.2,37,0.00,,,-99.99,wx200d/1.3,2013-05-30 00:02:00,
2013-05-29 20:07:00,83.7,55.0,29.50,SSW,203,5.4,10.5,38,0.00,,,-99.99,wx200d/1.3,2013-05-30 00:07:00,
2013-05-29 20:13:00,83.1,55.0,29.50,SSW,193,7.8,10.5,40,0.00,,,-99.99,wx200d/1.3,2013-05-30 00:13:00,
2013-05-29 20:18:00,82.8,55.0,29.50,South,183,6.7,10.1,40,0.00,,,-99.99,wx200d/1.3,2013-05-30 00:18:00,
2013-05-29 20:23:00,82.2,57.0,29.50,South,188,8.7,11.6,41,0.00,,,-99.99,wx200d/1.3,2013-05-30 00:23:00,
2013-05-29 20:28:00,82.0,57.0,29.50,SSW,195,6.9,10.1,42,0.00,,,-99.99,wx200d/1.3,2013-05-30 00:28:00,
2013-05-29 20:33:00,81.7,57.0,29.50,SW,229,6.9,9.2,42,0.00,,,-99.99,wx200d/1.3,2013-05-30 00:33:00,
2013-05-29 20:38:00,81.5,57.0,29.50,SSW,203,0.0,9.6,43,0.00,,,-99.99,wx200d/1.3,2013-05-30 00:38:00,
2013-05-29 20:43:00,81.5,59.0,29.50,SW,215,0.0,0.0,44,0.00,,,-99.99,wx200d/1.3,2013-05-30 00:43:00,
2013-05-29 20:48:00,81.3,57.0,29.50,SSW,203,0.0,0.0,44,0.00,,,-99.99,wx200d/1.3,2013-05-30 00:48:00,
2013-05-29 20:53:00,81.0,57.0,29.50,South,189,0.0,0.0,45,0.00,,,-99.99,wx200d/1.3,2013-05-30 00:53:00,
2013-05-29 20:58:00,80.8,57.0,29.50,South,184,0.0,0.0,46,0.00,,,-99.99,wx200d/1.3,2013-05-30 00:58:00,
2013-05-29 21:03:00,80.8,57.0,29.50,SSW,207,0.0,0.0,45,0.00,,,-99.99,wx200d/1.3,2013-05-30 01:03:00,
2013-05-29 21:08:00,80.6,57.0,29.50,South,191,5.4,6.7,45,0.00,,,-99.99,wx200d/1.3,2013-05-30 01:08:00,
2013-05-29 21:13:00,80.4,57.0,29.50,South,181,7.8,9.2,46,0.00,,,-99.99,wx200d/1.3,2013-05-30 01:13:00,
2013-05-29 21:18:00,80.2,57.0,29.50,SSW,195,6.9,8.7,46,0.00,,,-99.99,wx200d/1.3,2013-05-30 01:18:00,
2013-05-29 21:23:00,80.2,57.0,29.50,South,185,6.9,9.6,45,0.00,,,-99.99,wx200d/1.3,2013-05-30 01:23:00,
2013-05-29 21:28:00,80.1,57.0,29.50,South,191,8.3,11.6,46,0.00,,,-99.99,wx200d/1.3,2013-05-30 01:28:00,
2013-05-29 21:33:00,79.9,57.0,29.50,South,183,8.3,11.2,45,0.00,,,-99.99,wx200d/1.3,2013-05-30 01:33:00,
2013-05-29 21:38:00,79.9,57.0,29.50,South,186,7.8,10.1,45,0.00,,,-99.99,wx200d/1.3,2013-05-30 01:38:00,
2013-05-29 21:43:00,79.9,57.0,29.50,South,188,5.4,10.1,45,0.00,,,-99.99,wx200d/1.3,2013-05-30 01:43:00,
2013-05-29 21:48:00,79.7,57.0,29.50,South,181,7.4,9.2,45,0.00,,,-99.99,wx200d/1.3,2013-05-30 01:48:00,
2013-05-29 21:53:00,79.5,57.0,29.50,SE,141,6.3,8.7,46,0.00,,,-99.99,wx200d/1.3,2013-05-30 01:53:00,
2013-05-29 21:58:00,79.3,57.0,29.50,SSE,167,0.0,7.4,46,0.00,,,-99.99,wx200d/1.3,2013-05-30 01:58:00,
2013-05-29 22:03:00,79.2,57.0,29.50,South,189,0.0,8.3,47,0.00,,,-99.99,wx200d/1.3,2013-05-30 02:03:00,
2013-05-29 22:08:00,79.2,57.0,29.53,South,184,4.5,6.9,47,0.00,,,-99.99,wx200d/1.3,2013-05-30 02:08:00,
2013-05-29 22:13:00,79.2,57.0,29.53,South,180,0.0,6.9,47,0.00,,,-99.99,wx200d/1.3,2013-05-30 02:13:00,
2013-05-29 22:18:00,79.2,57.0,29.53,South,180,0.0,10.5,47,0.00,,,-99.99,wx200d/1.3,2013-05-30 02:18:00,
2013-05-29 22:23:00,79.0,57.0,29.53,South,179,3.1,7.8,47,0.00,,,-99.99,wx200d/1.3,2013-05-30 02:23:00,
2013-05-29 22:28:00,79.0,57.0,29.53,South,186,3.6,8.7,48,0.00,,,-99.99,wx200d/1.3,2013-05-30 02:28:00,
2013-05-29 22:33:00,78.8,57.0,29.53,South,169,3.1,6.9,48,0.00,,,-99.99,wx200d/1.3,2013-05-30 02:33:00,
2013-05-29 22:38:00,78.6,57.0,29.53,South,173,4.0,6.9,48,0.00,,,-99.99,wx200d/1.3,2013-05-30 02:38:00,
2013-05-29 22:43:00,78.6,57.0,29.53,SSW,208,0.0,6.9,48,0.00,,,-99.99,wx200d/1.3,2013-05-30 02:43:00,
2013-05-29 22:48:00,78.4,57.0,29.53,SSW,200,0.0,6.3,49,0.00,,,-99.99,wx200d/1.3,2013-05-30 02:48:00,
2013-05-29 22:53:00,78.6,57.0,29.53,South,177,4.5,6.9,48,0.00,,,-99.99,wx200d/1.3,2013-05-30 02:53:00,
2013-05-29 22:58:00,78.6,57.0,29.53,SSE,167,5.8,7.8,48,0.00,,,-99.99,wx200d/1.3,2013-05-30 02:58:00,
2013-05-29 23:03:00,78.8,57.0,29.53,South,178,3.6,8.3,47,0.00,,,-99.99,wx200d/1.3,2013-05-30 03:03:00,
2013-05-29 23:08:00,78.8,57.0,29.53,SSW,196,4.5,8.7,47,0.00,,,-99.99,wx200d/1.3,2013-05-30 03:08:00,
2013-05-29 23:13:00,78.8,57.0,29.53,SSE,159,0.0,7.8,47,0.00,,,-99.99,wx200d/1.3,2013-05-30 03:13:00,
2013-05-29 23:18:00,78.8,57.0,29.53,SE,141,2.7,5.8,47,0.00,,,-99.99,wx200d/1.3,2013-05-30 03:18:00,
2013-05-29 23:23:00,78.6,57.0,29.53,SSE,164,4.0,8.3,47,0.00,,,-99.99,wx200d/1.3,2013-05-30 03:23:00,
2013-05-29 23:28:00,78.8,57.0,29.53,South,187,6.3,7.8,47,0.00,,,-99.99,wx200d/1.3,2013-05-30 03:28:00,
2013-05-29 23:33:00,78.8,57.0,29.53,SSW,198,5.8,9.6,46,0.00,,,-99.99,wx200d/1.3,2013-05-30 03:33:00,
2013-05-29 23:38:00,79.0,57.0,29.56,South,180,4.0,10.1,46,0.00,,,-99.99,wx200d/1.3,2013-05-30 03:38:00,
2013-05-29 23:43:00,79.0,55.0,29.56,South,185,6.9,8.7,45,0.00,,,-99.99,wx200d/1.3,2013-05-30 03:43:00,
2013-05-29 23:48:00,79.0,55.0,29.56,South,188,7.4,9.2,45,0.00,,,-99.99,wx200d/1.3,2013-05-30 03:48:00,
2013-05-29 23:54:00,79.0,55.0,29.56,South,180,6.3,10.1,45,0.00,,,-99.99,wx200d/1.3,2013-05-30 03:54:00,
2013-05-29 23:59:00,79.0,55.0,29.56,SSW,194,0.0,7.4,45,0.00,,,-99.99,wx200d/1.3,2013-05-30 03:59:00,